Juan de Fuca Strait - east entrance: Past 24 Hour Conditions

 

Discovery Island

11:00 AM PDT 24 April 2014
This table is a summary of hourly weather conditions for the past 24 hours.
Date / Time
(PDT)
Wind(knots) Conditions Visibility(km) Pressure(kPa) Air tempC) Relative humidity(%) Dew pointC)
24 April 2014
11:00 SSE 11 N/A N/A 100.5 9 89 7
10:00 S 5 N/A N/A 100.4 12 65 5
9:00 W 7 gust 15 N/A N/A 100.2 11 68 5
8:00 WNW 6 gust 16 N/A N/A 100.1 10 76 6
7:00 W 5 N/A N/A 100.1 9 91 8
6:00 WSW 1 N/A N/A 100.1 9 95 8
5:00 SSW 7 N/A N/A 100.0 9 94 8
4:00 SSE 16 N/A N/A 99.9 9 94 8
3:00 SSE 21 N/A N/A 99.9 9 93 8
2:00 SSE 17 gust 23 N/A N/A 100.0 9 92 8
1:00 SE 19 N/A N/A 100.0 9 88 7
0:00 ESE 20 N/A N/A 100.1 9 86 7
23 April 2014
23:00 ESE 18 N/A N/A 100.2 9 89 7
22:00 ESE 21 gust 26 N/A N/A 100.3 9 86 7
21:00 ESE 19 N/A N/A 100.4 9 87 7
20:00 SE 26 N/A N/A 100.4 10 81 6
19:00 SE 17 gust 24 N/A N/A 100.6 10 82 7
18:00 SSE 14 gust 21 N/A N/A 100.6 10 79 6
17:00 SE 16 N/A N/A 100.7 10 81 6
16:00 SE 16 N/A N/A 100.8 9 80 6
15:00 SE 16 N/A N/A 100.9 9 81 6
14:00 SE 11 N/A N/A 101.0 9 78 6
13:00 ESE 9 N/A N/A 101.0 9 80 6
12:00 SE 11 N/A N/A 101.1 8 81 5
11:00 SE 14 N/A N/A 101.0 8 81 5
 
Map of Pacific - Georgia Basin marine weather areas Tsawwassen Ferry Terminal Sentry Shoal - 46131 Halibut Bank - 46146 La Perouse Bank - 46206 Discovery Island Esquimalt Harbour Kelp Reefs Malahat Race Rocks Lightstation Saturna Island Sheringham Point University of Victoria Victoria Gonzales Victoria Int'l Airport Ballenas Islands Campbell River Airport Comox Airport Entrance Island Fanny Island Nanaimo Airport Sisters Islets Estevan Point Tofino Airport Grief Point Powell River Airport Sechelt Point Atkinson Sand Heads Lightstation Vancouver Harbour Vancouver Int'l Airport West Vancouver Port Alberni Howe Sound - Pam Rocks Squamish Airport